Current weather by "City, St" or "zip code"  
 

Current Conditions: Casa Grande, Casa Grande Municipal Airport, AZ

Fair


91.0 F

Last Updated on Sep 18 2020, 8:56 am MST
Humidity: 17%
Wind Speed: E 10.4 mph
Barometer 30.00 in
Dewpoint: 41.0 F
Visibility: 10.00 mi
Precip: --
Heat Index: 87 F
Wind Chill: NA
Current conditions at:

Casa Grande, Casa Grande Municipal Airport, AZ (KCGZ)

Lat: 32.95 Lon: 111.76667

Local Radar Image active severe weather and emergency alerts image image weather storm and storm spotter reports image weather observation monitoring service image
Local
Radar
Active
Alerts
Storm Reports Obs
Monitoring

Sign-up For Email & Text Message Weather Alert Notification Services



Advertise Here

Observation History for Casa Grande, Casa Grande Municipal Airport, AZ


Time Wind
(mph)
Vis
(mi)
Weather Precip (in) Temperature (F) Relative
Humidity
Wind
Chill
(F)
Heat
Index
(F)
Pressure
Air Dwpt altimeter
(in)
sea level
(mb)
Rmks
8:56 am MST E 10.4 10.00 Fair -- 91.0 41.0 17% NA 87 30.00 1014.0
7:56 am MST E 12.7 10.00 Fair -- 85.0 39.0 20% NA 82 29.98 1013.7
6:56 am MST E 9.2 10.00 Fair -- 79.0 39.0 24% NA NA 29.97 1013.2
5:56 am MST E 6.9 10.00 Fair -- 81.0 39.9 23% NA 79 29.95 1012.3
4:56 am MST E 10.4 10.00 Fair -- 82.0 37.9 21% NA 80 29.93 1011.6
3:56 am MST E 11.5 10.00 Fair -- 83.0 37.9 20% NA 81 29.92 1011.2
2:56 am MST E 5.8 10.00 Fair -- 78.0 36.0 22% NA NA 29.93 1011.5
1:56 am MST E 5.8 10.00 Fair -- 82.0 37.0 20% NA 80 29.92 1011.4
12:56 am MST E 9.2 10.00 Fair -- 80.0 35.1 20% NA 79 29.91 1011.1
11:56 pm MST NE 3.5 10.00 Fair -- 83.0 36.0 19% NA 80 29.91 1010.9
10:56 pm MST NE 4.6 10.00 Fair -- 83.0 37.9 20% NA 81 29.90 1010.8
9:56 pm MST E 5.8 10.00 Fair -- 89.0 33.1 14% NA 85 29.88 1009.9
8:56 pm MST N 6.9 10.00 Fair -- 91.0 32.0 12% NA 87 29.87 1009.6
7:56 pm MST N 9.2 10.00 Fair -- 91.0 30.9 12% NA 87 29.87 1009.6
6:56 pm MST N 5.8 10.00 Fair -- 97.0 32.0 10% NA 92 29.85 1009.2
5:56 pm MST SW 3.5 10.00 Fair -- 104.0 32.0 8% NA 98 29.85 1009.0
4:56 pm MST N 3.5 10.00 Fair -- 104.0 32.0 8% NA 98 29.85 1009.1
3:56 pm MST SE 8.1 10.00 Fair -- 106.0 33.1 8% NA 100 29.87 1009.5
2:56 pm MST E 8.1 10.00 Fair -- 105.0 33.1 8% NA 99 29.88 1010.1
1:56 pm MST NE 6.9 10.00 Fair -- 104.0 34.0 9% NA 98 29.91 1010.8
12:56 pm MST E 8.1 10.00 Fair -- 104.0 36.0 9% NA 98 29.93 1011.7
11:56 am MST S 6.9 10.00 Fair -- 102.0 37.0 11% NA 97 29.96 1012.9
10:56 am MST 6.9 10.00 Fair -- 98.0 39.0 13% NA 93 29.98 1013.5
9:56 am MST E 9.2 5.00 Fair with Haze -- 95.0 37.0 13% NA 90 29.99 1013.8

Regional Weather Observation


Phoenix, Phoenix Sky Harbor International Airport, AZ (KPHX)

Fair
91.0 F

Phoenix-Mesa Gateway Airport, AZ (KIWA)

Clear
88.0 F

Mesa / Falcon Field, AZ (KFFZ)

Fair
90.0 F

Scottsdale Airport, AZ (KSDL)

Fair
95.0 F

Casa Grande, Casa Grande Municipal Airport, AZ (KCGZ)

Fair
91.0 F

Goodyear Municipal, AZ (KGYR)

Clear
90.0 F